Ireland West Airport Knock, Ireland

4:38 PM IST on May 21, 2018 (GMT +0100)
Connaught

Weather History for EIKN - March, 2013

Change the Weather History Date:

Thursday, March 21, 2013

  Actual Average Record
Temperature  
Mean Temperature 36 °F -  
Max Temperature 40 °F - - ()
Min Temperature 31 °F - - ()
Degree Days  
Heating Degree Days 30    
Moisture  
Dew Point 34 °F    
Average Humidity 86    
Maximum Humidity 100    
Minimum Humidity 67    
Precipitation  
Precipitation 0.04 in - - ()
Sea Level Pressure  
Sea Level Pressure 29.65 in    
Wind  
Wind Speed 19 mph ()    
Max Wind Speed 30 mph    
Max Gust Speed 44 mph    
Visibility 6.1 miles    
Events Rain , Snow    
T = Trace of Precipitation, MM = Missing Value Source: Averaged Metar Reports

Daily Weather History Graph

Daily Weather History Graph

Search for Another Location

Airport or City:

Astronomy

Mar. 21, 2013 Rise Set
Actual Time 6:35 AM GMT 6:50 PM GMT
Civil Twilight 5:59 AM GMT 7:26 PM GMT
Nautical Twilight 5:18 AM GMT 8:08 PM GMT
Astronomical Twilight 4:34 AM GMT 8:52 PM GMT
Moon 12:23 PM GMT 3:33 AM GMT
Length of Visible Light 13h 26m
Length of Day
12h 15m
Waxing Gibbous, 67% of the Moon is Illuminated
Mar 21
Waxing Gibbous
Mar 27
Full
Apr 3
Last Quarter
Apr 10
New
Apr 18
First Quarter

Hourly Weather History & Observations

Time (GMT) Temp. Windchill Dew Point Humidity Pressure Visibility Wind Dir Wind Speed Gust Speed Precip Events Conditions
12:00 AM 33 °F - 33 °F 99% 29.83 in - East 11.2 mph - -  
6:00 AM 33 °F - 33 °F 99% 29.78 in 5 mi ESE 17.9 mph - -   Mist
8:00 AM 35.6 °F 24.5 °F 33.8 °F 93% 29.71 in 6.2 mi ESE 20.7 mph 36.8 mph N/A   Mostly Cloudy
8:30 AM 37.4 °F 26.6 °F 33.8 °F 87% 29.71 in 6.2 mi ESE 21.9 mph 34.5 mph N/A   Mostly Cloudy
9:00 AM 37.4 °F 26.6 °F 33.8 °F 87% 29.68 in 6.2 mi ESE 21.9 mph 34.5 mph N/A   Mostly Cloudy
9:30 AM 37.4 °F 26.6 °F 33.8 °F 87% 29.68 in 6.2 mi ESE 21.9 mph 34.5 mph N/A   Mostly Cloudy
10:00 AM 39.2 °F 29.0 °F 33.8 °F 81% 29.68 in 6.2 mi ESE 21.9 mph 36.8 mph N/A   Mostly Cloudy
10:30 AM 39.2 °F 29.0 °F 33.8 °F 81% 29.68 in 6.2 mi ESE 21.9 mph 33.4 mph N/A   Mostly Cloudy
11:00 AM 39.2 °F 29.0 °F 33.8 °F 81% 29.68 in 6.2 mi ESE 21.9 mph 40.3 mph N/A   Mostly Cloudy
11:30 AM 39.2 °F 29.3 °F 32.0 °F 75% 29.68 in 6.2 mi ESE 20.7 mph - N/A   Mostly Cloudy
12:00 PM 40 °F - 33 °F 67% 29.71 in 16 mi ESE 22.4 mph - -   Overcast
12:00 PM 39.2 °F 28.7 °F 33.8 °F 81% 29.68 in 6.2 mi ESE 23.0 mph 39.1 mph N/A   Mostly Cloudy
12:30 PM 39.2 °F 28.7 °F 33.8 °F 81% 29.65 in 6.2 mi ESE 23.0 mph 39.1 mph N/A   Mostly Cloudy
1:00 PM 39.2 °F 28.3 °F 32.0 °F 75% 29.65 in 6.2 mi ESE 25.3 mph 38.0 mph N/A   Mostly Cloudy
1:30 PM 41.0 °F 30.5 °F 32.0 °F 70% 29.62 in 6.2 mi ESE 26.5 mph - N/A   Mostly Cloudy
2:00 PM 41.0 °F 29.8 °F 32.0 °F 70% 29.62 in 6.2 mi ESE 29.9 mph 41.4 mph N/A   Mostly Cloudy
2:30 PM 39.2 °F 28.3 °F 33.8 °F 81% 29.62 in 6.2 mi ESE 25.3 mph 36.8 mph N/A Rain Light Rain
3:00 PM 39.2 °F 28.5 °F 33.8 °F 81% 29.62 in 6.2 mi ESE 24.2 mph 42.6 mph N/A Rain Light Rain
3:30 PM 37.4 °F 26.1 °F 33.8 °F 87% 29.59 in 6.2 mi East 24.2 mph 39.1 mph N/A Rain Light Rain
4:00 PM 37.4 °F 26.6 °F 35.6 °F 93% 29.59 in 6.2 mi East 21.9 mph 40.3 mph N/A Rain Light Rain
4:30 PM 35.6 °F 23.2 °F 35.6 °F 100% 29.56 in 3.7 mi East 26.5 mph - N/A Rain , Snow Light Rain
5:00 PM 35.6 °F 23.7 °F 33.8 °F 93% 29.56 in 3.7 mi East 24.2 mph 42.6 mph N/A Rain , Snow Light Rain
6:00 PM 35 °F - 35 °F 97% 29.57 in 4 mi East 26.8 mph - - Snow Light Snow
6:00 PM 35.6 °F 23.2 °F 33.8 °F 93% 29.53 in 3.7 mi East 26.5 mph 43.7 mph N/A Rain , Snow Light Rain
7:00 PM 35.6 °F 23.2 °F 35.6 °F 100% 29.50 in 5.0 mi East 26.5 mph 39.1 mph N/A Rain Light Rain